Location: Cranford
(40.6578°N, 74.3024°W)
Time: 11:27:31
(UTC+00:00)

STARLINK-5233 - Pass Details

Date: 08 December 2022
Orbit: 349 x 350 km, 53.2° (Epoch: 09 February)

Event Time Altitude Azimuth Distance (km) Brightness Sun altitude
Rises 23:13:58 0° 262° (W) 2,157 ? -19.1°
Reaches altitude 10° 23:16:16 10° 280° (W) 1,318 ? -19.5°
Maximum altitude 23:18:36 21° 332° (NNW) 863 ? -20.0°
Enters shadow 23:18:41 21° 335° (NNW) 864 ? -20.0°
